TimeCDT,TemperatureF,Dew PointF,Humidity,Sea Level PressureIn,VisibilityMPH,Wind Direction,Wind SpeedMPH,Gust SpeedMPH,PrecipitationIn,Events,Conditions,WindDirDegrees,DateUTC
12:53 AM,52.0,27.0,38,29.61,10.0,ESE,5.8,-,N/A,,Clear,110,2012-10-21 05:53:00
1:53 AM,46.0,28.0,50,29.61,10.0,East,4.6,-,N/A,,Clear,100,2012-10-21 06:53:00
2:53 AM,45.0,28.9,53,29.61,10.0,Calm,Calm,-,N/A,,Clear,0,2012-10-21 07:53:00
3:53 AM,39.9,28.0,63,29.62,10.0,Calm,Calm,-,N/A,,Clear,0,2012-10-21 08:53:00
4:53 AM,35.1,27.0,72,29.64,10.0,Calm,Calm,-,N/A,,Clear,0,2012-10-21 09:53:00
5:53 AM,36.0,27.0,70,29.65,10.0,Calm,Calm,-,N/A,,Clear,0,2012-10-21 10:53:00
6:53 AM,36.0,25.0,64,29.68,5.0,Calm,Calm,-,N/A,,Haze,0,2012-10-21 11:53:00
7:53 AM,33.1,26.1,75,29.71,10.0,Calm,Calm,-,N/A,,Clear,0,2012-10-21 12:53:00
8:53 AM,46.0,27.0,47,29.72,10.0,NNE,3.5,-,N/A,,Clear,30,2012-10-21 13:53:00
9:53 AM,55.9,35.1,45,29.74,10.0,North,12.7,19.6,N/A,,Clear,360,2012-10-21 14:53:00
10:53 AM,59.0,37.0,44,29.75,10.0,NNE,18.4,29.9,N/A,,Clear,20,2012-10-21 15:53:00
11:53 AM,62.1,39.0,43,29.75,10.0,NNE,18.4,23.0,N/A,,Clear,30,2012-10-21 16:53:00
12:53 PM,66.9,39.0,36,29.75,10.0,NE,15.0,19.6,N/A,,Clear,40,2012-10-21 17:53:00
1:53 PM,69.1,39.0,33,29.75,10.0,NNE,13.8,21.9,N/A,,Clear,30,2012-10-21 18:53:00
2:53 PM,71.1,37.9,30,29.74,10.0,NNE,17.3,-,N/A,,Clear,30,2012-10-21 19:53:00
3:53 PM,70.0,37.9,31,29.75,10.0,NE,12.7,20.7,N/A,,Clear,50,2012-10-21 20:53:00
4:53 PM,70.0,39.0,32,29.76,10.0,NE,15.0,-,N/A,,Clear,40,2012-10-21 21:53:00
5:53 PM,68.0,37.9,33,29.78,10.0,NE,15.0,-,N/A,,Clear,50,2012-10-21 22:53:00
6:53 PM,61.0,37.9,42,29.81,10.0,NE,8.1,-,N/A,,Clear,50,2012-10-21 23:53:00
7:53 PM,55.0,37.0,51,29.86,10.0,NE,8.1,-,N/A,,Clear,40,2012-10-22 00:53:00
8:53 PM,54.0,37.0,53,29.86,10.0,NE,12.7,-,N/A,,Clear,40,2012-10-22 01:53:00
9:53 PM,51.1,37.0,59,29.85,10.0,NNE,12.7,-,N/A,,Clear,30,2012-10-22 02:53:00
10:53 PM,51.1,37.9,61,29.84,10.0,NE,10.4,-,N/A,,Clear,50,2012-10-22 03:53:00
11:53 PM,48.9,39.0,69,29.86,10.0,East,4.6,-,N/A,,Clear,100,2012-10-22 04:53:00